Time,TemperatureF,DewpointF,PressureIn,WindDirection,WindDirectionDegrees,WindSpeedMPH,WindSpeedGustMPH,Humidity,HourlyPrecipIn,Conditions,Clouds,dailyrainin,SoftwareType,DateUTC
2013-06-11 00:03:00,81.1,78.6,30.01,SW,217,4.0,4.0,92,0.00,,,0.00,Wunderground v.1.15,2013-06-11 05:03:00,
2013-06-11 00:08:00,81.1,78.6,30.01,SSE,152,1.0,6.0,92,0.00,,,0.00,Wunderground v.1.15,2013-06-11 05:08:00,
2013-06-11 00:14:00,81.0,78.5,30.01,SSW,210,3.0,5.0,92,0.00,,,0.00,Wunderground v.1.15,2013-06-11 05:14:00,
2013-06-11 00:20:00,80.9,78.4,30.01,SW,220,3.0,3.0,92,0.00,,,0.00,Wunderground v.1.15,2013-06-11 05:20:00,
2013-06-11 00:25:00,80.9,78.4,30.01,SW,221,0.0,4.0,92,0.00,,,0.00,Wunderground v.1.15,2013-06-11 05:25:00,
2013-06-11 00:31:00,81.0,78.8,30.01,SSW,212,4.0,4.0,93,0.00,,,0.00,Wunderground v.1.15,2013-06-11 05:31:00,
2013-06-11 00:37:00,80.9,78.4,30.01,SSW,194,3.0,4.0,92,0.00,,,0.00,Wunderground v.1.15,2013-06-11 05:37:00,
2013-06-11 00:43:00,80.9,78.4,30.01,SW,218,5.0,6.0,92,0.00,,,0.00,Wunderground v.1.15,2013-06-11 05:43:00,
2013-06-11 00:49:00,80.8,78.3,30.01,South,186,0.0,6.0,92,0.00,,,0.00,Wunderground v.1.15,2013-06-11 05:49:00,
2013-06-11 00:55:00,80.8,78.3,30.01,SSW,195,6.0,6.0,92,0.00,,,0.00,Wunderground v.1.15,2013-06-11 05:55:00,
2013-06-11 01:01:00,80.8,78.3,30.01,SSW,207,3.0,4.0,92,0.00,,,0.00,Wunderground v.1.15,2013-06-11 06:01:00,
2013-06-11 01:07:00,80.8,77.9,30.01,WSW,238,1.0,5.0,91,0.00,,,0.00,Wunderground v.1.15,2013-06-11 06:07:00,
2013-06-11 01:12:00,80.8,77.9,30.01,SW,217,3.0,3.0,91,0.00,,,0.00,Wunderground v.1.15,2013-06-11 06:12:00,
2013-06-11 01:18:00,80.8,78.3,30.01,WSW,243,0.0,3.0,92,0.00,,,0.00,Wunderground v.1.15,2013-06-11 06:18:00,
2013-06-11 01:24:00,80.8,78.3,30.01,SSE,166,1.0,3.0,92,0.00,,,0.00,Wunderground v.1.15,2013-06-11 06:24:00,
2013-06-11 01:30:00,80.7,78.2,30.01,South,184,4.0,4.0,92,0.00,,,0.00,Wunderground v.1.15,2013-06-11 06:30:00,
2013-06-11 01:35:00,80.7,78.2,30.01,SSW,212,7.0,7.0,92,0.00,,,0.00,Wunderground v.1.15,2013-06-11 06:35:00,
2013-06-11 01:41:00,80.7,78.2,30.01,WSW,244,3.0,3.0,92,0.00,,,0.00,Wunderground v.1.15,2013-06-11 06:41:00,
2013-06-11 01:47:00,80.6,78.4,30.01,WSW,243,5.0,5.0,93,0.00,,,0.00,Wunderground v.1.15,2013-06-11 06:47:00,
2013-06-11 01:53:00,80.7,78.5,30.01,SSW,205,2.0,3.0,93,0.00,,,0.00,Wunderground v.1.15,2013-06-11 06:53:00,
2013-06-11 01:59:00,80.7,78.5,30.01,West,259,3.0,5.0,93,0.00,,,0.00,Wunderground v.1.15,2013-06-11 06:59:00,
2013-06-11 02:04:00,80.7,78.5,30.01,SSW,209,2.0,6.0,93,0.00,,,0.00,Wunderground v.1.15,2013-06-11 07:04:00,
2013-06-11 02:09:00,80.6,78.4,30.01,SSW,212,0.0,7.0,93,0.00,,,0.00,Wunderground v.1.15,2013-06-11 07:09:00,
2013-06-11 02:14:00,80.6,78.4,30.01,WSW,245,3.0,8.0,93,0.00,,,0.00,Wunderground v.1.15,2013-06-11 07:14:00,
2013-06-11 02:19:00,80.6,78.4,30.01,South,181,5.0,8.0,93,0.00,,,0.00,Wunderground v.1.15,2013-06-11 07:19:00,
2013-06-11 02:24:00,80.6,78.1,30.01,SSW,195,8.0,8.0,92,0.00,,,0.00,Wunderground v.1.15,2013-06-11 07:24:00,
2013-06-11 02:29:00,80.6,78.1,30.01,SSW,203,2.0,9.0,92,0.00,,,0.00,Wunderground v.1.15,2013-06-11 07:29:00,
2013-06-11 02:34:00,80.6,78.1,30.01,WSW,253,2.0,7.0,92,0.00,,,0.00,Wunderground v.1.15,2013-06-11 07:34:00,
2013-06-11 02:39:00,80.6,78.1,30.01,WSW,243,2.0,7.0,92,0.00,,,0.00,Wunderground v.1.15,2013-06-11 07:39:00,
2013-06-11 02:44:00,80.6,78.1,30.01,SSW,198,8.0,8.0,92,0.00,,,0.00,Wunderground v.1.15,2013-06-11 07:44:00,
2013-06-11 02:49:00,80.5,78.0,30.01,SW,222,4.0,8.0,92,0.00,,,0.00,Wunderground v.1.15,2013-06-11 07:49:00,
2013-06-11 02:54:00,80.5,78.0,30.01,SSE,163,4.0,7.0,92,0.00,,,0.00,Wunderground v.1.15,2013-06-11 07:54:00,
2013-06-11 02:59:00,80.5,78.0,30.02,SW,214,1.0,7.0,92,0.00,,,0.00,Wunderground v.1.15,2013-06-11 07:59:00,
2013-06-11 03:04:00,80.5,78.0,30.01,SSW,198,1.0,5.0,92,0.00,,,0.00,Wunderground v.1.15,2013-06-11 08:04:00,
2013-06-11 03:09:00,80.3,77.8,30.01,SW,232,0.0,5.0,92,0.00,,,0.00,Wunderground v.1.15,2013-06-11 08:09:00,
2013-06-11 03:14:00,80.3,78.1,30.01,West,272,0.0,3.0,93,0.00,,,0.00,Wunderground v.1.15,2013-06-11 08:14:00,
2013-06-11 03:19:00,80.2,78.0,30.01,SSW,194,1.0,3.0,93,0.00,,,0.00,Wunderground v.1.15,2013-06-11 08:19:00,
2013-06-11 03:24:00,80.1,77.9,30.01,SW,215,0.0,5.0,93,0.00,,,0.00,Wunderground v.1.15,2013-06-11 08:24:00,
2013-06-11 03:29:00,80.1,77.9,30.02,SSW,198,2.0,5.0,93,0.00,,,0.00,Wunderground v.1.15,2013-06-11 08:29:00,
2013-06-11 03:34:00,80.1,77.9,30.02,SSW,212,0.0,3.0,93,0.00,,,0.00,Wunderground v.1.15,2013-06-11 08:34:00,
2013-06-11 03:39:00,80.0,77.8,30.02,SW,220,0.0,3.0,93,0.00,,,0.00,Wunderground v.1.15,2013-06-11 08:39:00,
2013-06-11 03:44:00,80.0,77.8,30.02,SSW,201,0.0,1.0,93,0.00,,,0.00,Wunderground v.1.15,2013-06-11 08:44:00,
2013-06-11 03:49:00,79.9,77.7,30.02,SW,236,0.0,4.0,93,0.00,,,0.00,Wunderground v.1.15,2013-06-11 08:49:00,
2013-06-11 03:54:00,79.9,77.7,30.02,WSW,256,0.0,3.0,93,0.00,,,0.00,Wunderground v.1.15,2013-06-11 08:54:00,
2013-06-11 03:59:00,79.9,77.7,30.02,SW,221,0.0,4.0,93,0.00,,,0.00,Wunderground v.1.15,2013-06-11 08:59:00,
2013-06-11 04:04:00,79.9,77.7,30.02,SW,230,0.0,3.0,93,0.00,,,0.00,Wunderground v.1.15,2013-06-11 09:04:00,
2013-06-11 04:09:00,79.9,77.7,30.02,SSW,192,2.0,3.0,93,0.00,,,0.00,Wunderground v.1.15,2013-06-11 09:09:00,
2013-06-11 04:14:00,79.8,77.6,30.02,SW,233,0.0,3.0,93,0.00,,,0.00,Wunderground v.1.15,2013-06-11 09:14:00,
2013-06-11 04:19:00,79.8,77.6,30.02,SW,219,0.0,4.0,93,0.00,,,0.00,Wunderground v.1.15,2013-06-11 09:19:00,
2013-06-11 04:24:00,79.7,77.5,30.02,SSW,212,0.0,2.0,93,0.00,,,0.00,Wunderground v.1.15,2013-06-11 09:24:00,
2013-06-11 04:29:00,79.7,77.5,30.02,SSW,193,0.0,2.0,93,0.00,,,0.00,Wunderground v.1.15,2013-06-11 09:29:00,
2013-06-11 04:34:00,79.6,77.7,30.02,SW,233,0.0,1.0,94,0.00,,,0.00,Wunderground v.1.15,2013-06-11 09:34:00,
2013-06-11 04:39:00,79.5,77.6,30.03,West,274,0.0,3.0,94,0.00,,,0.00,Wunderground v.1.15,2013-06-11 09:39:00,
2013-06-11 04:44:00,79.5,77.6,30.02,SW,226,1.0,3.0,94,0.00,,,0.00,Wunderground v.1.15,2013-06-11 09:44:00,
2013-06-11 04:49:00,79.4,77.5,30.02,SW,231,1.0,3.0,94,0.00,,,0.00,Wunderground v.1.15,2013-06-11 09:49:00,
2013-06-11 04:54:00,79.4,77.5,30.03,SW,231,0.0,1.0,94,0.00,,,0.00,Wunderground v.1.15,2013-06-11 09:54:00,
2013-06-11 04:59:00,79.3,77.4,30.03,WSW,255,0.0,1.0,94,0.00,,,0.00,Wunderground v.1.15,2013-06-11 09:59:00,
2013-06-11 05:04:00,79.3,77.4,30.03,WSW,255,0.0,0.0,94,0.00,,,0.00,Wunderground v.1.15,2013-06-11 10:04:00,
2013-06-11 05:09:00,79.3,77.4,30.03,WSW,245,0.0,0.0,94,0.00,,,0.00,Wunderground v.1.15,2013-06-11 10:09:00,
2013-06-11 05:14:00,79.2,77.3,30.03,WSW,246,0.0,0.0,94,0.00,,,0.00,Wunderground v.1.15,2013-06-11 10:14:00,
2013-06-11 05:19:00,79.0,77.1,30.03,WSW,246,0.0,0.0,94,0.00,,,0.00,Wunderground v.1.15,2013-06-11 10:19:00,
2013-06-11 05:24:00,79.0,77.1,30.03,WSW,246,0.0,0.0,94,0.00,,,0.00,Wunderground v.1.15,2013-06-11 10:24:00,
2013-06-11 05:29:00,78.9,77.0,30.04,WSW,246,0.0,0.0,94,0.00,,,0.00,Wunderground v.1.15,2013-06-11 10:29:00,
2013-06-11 05:34:00,78.8,77.2,30.04,WSW,246,0.0,0.0,95,0.00,,,0.00,Wunderground v.1.15,2013-06-11 10:34:00,
2013-06-11 05:39:00,78.8,77.2,30.04,WSW,245,0.0,0.0,95,0.00,,,0.00,Wunderground v.1.15,2013-06-11 10:39:00,
2013-06-11 05:44:00,78.8,77.2,30.04,WSW,246,0.0,0.0,95,0.00,,,0.00,Wunderground v.1.15,2013-06-11 10:44:00,
2013-06-11 05:49:00,78.7,77.1,30.04,WSW,246,0.0,0.0,95,0.00,,,0.00,Wunderground v.1.15,2013-06-11 10:49:00,
2013-06-11 05:54:00,78.7,77.1,30.04,WSW,246,0.0,0.0,95,0.00,,,0.00,Wunderground v.1.15,2013-06-11 10:54:00,
2013-06-11 05:59:00,78.6,77.0,30.04,WSW,245,0.0,0.0,95,0.00,,,0.00,Wunderground v.1.15,2013-06-11 10:59:00,
2013-06-11 06:04:00,78.6,77.0,30.05,WSW,246,0.0,0.0,95,0.00,,,0.00,Wunderground v.1.15,2013-06-11 11:04:00,
2013-06-11 06:09:00,78.6,77.0,30.05,WSW,245,0.0,0.0,95,0.00,,,0.00,Wunderground v.1.15,2013-06-11 11:09:00,
2013-06-11 06:14:00,78.5,76.9,30.05,WSW,246,0.0,0.0,95,0.00,,,0.00,Wunderground v.1.15,2013-06-11 11:14:00,
2013-06-11 06:19:00,78.5,76.9,30.05,WSW,246,0.0,0.0,95,0.00,,,0.00,Wunderground v.1.15,2013-06-11 11:19:00,
2013-06-11 06:24:00,78.5,76.9,30.05,WSW,246,0.0,0.0,95,0.00,,,0.00,Wunderground v.1.15,2013-06-11 11:24:00,
2013-06-11 06:29:00,78.6,77.0,30.05,WSW,248,0.0,0.0,95,0.00,,,0.00,Wunderground v.1.15,2013-06-11 11:29:00,
2013-06-11 06:34:00,78.6,77.0,30.05,WSW,245,0.0,0.0,95,0.00,,,0.00,Wunderground v.1.15,2013-06-11 11:34:00,
2013-06-11 06:39:00,78.7,77.1,30.06,WSW,245,0.0,0.0,95,0.00,,,0.00,Wunderground v.1.15,2013-06-11 11:39:00,
2013-06-11 06:44:00,78.8,77.2,30.06,WSW,248,0.0,0.0,95,0.00,,,0.00,Wunderground v.1.15,2013-06-11 11:44:00,
2013-06-11 06:49:00,78.8,77.2,30.06,WSW,245,0.0,0.0,95,0.00,,,0.00,Wunderground v.1.15,2013-06-11 11:49:00,
2013-06-11 06:54:00,78.8,77.2,30.06,WSW,246,0.0,0.0,95,0.00,,,0.00,Wunderground v.1.15,2013-06-11 11:54:00,
2013-06-11 06:59:00,78.9,77.3,30.06,WSW,245,0.0,0.0,95,0.00,,,0.00,Wunderground v.1.15,2013-06-11 11:59:00,
2013-06-11 07:04:00,79.0,77.4,30.06,WSW,246,0.0,0.0,95,0.00,,,0.00,Wunderground v.1.15,2013-06-11 12:04:00,
2013-06-11 07:09:00,79.1,77.5,30.06,WSW,247,0.0,0.0,95,0.00,,,0.00,Wunderground v.1.15,2013-06-11 12:09:00,
2013-06-11 07:14:00,79.3,77.7,30.06,WSW,248,0.0,0.0,95,0.00,,,0.00,Wunderground v.1.15,2013-06-11 12:14:00,
2013-06-11 07:19:00,79.4,77.8,30.06,West,267,1.0,2.0,95,0.00,,,0.00,Wunderground v.1.15,2013-06-11 12:19:00,
2013-06-11 07:24:00,79.6,78.0,30.07,West,268,0.0,1.0,95,0.00,,,0.00,Wunderground v.1.15,2013-06-11 12:24:00,
2013-06-11 07:29:00,79.9,78.3,30.07,West,267,0.0,1.0,95,0.00,,,0.00,Wunderground v.1.15,2013-06-11 12:29:00,
2013-06-11 07:34:00,80.3,78.4,30.07,WSW,246,0.0,1.0,94,0.00,,,0.00,Wunderground v.1.15,2013-06-11 12:34:00,
2013-06-11 07:39:00,80.8,78.6,30.07,SW,214,0.0,3.0,93,0.00,,,0.00,Wunderground v.1.15,2013-06-11 12:39:00,
2013-06-11 07:44:00,81.6,79.0,30.07,WSW,253,1.0,2.0,92,0.00,,,0.00,Wunderground v.1.15,2013-06-11 12:44:00,
2013-06-11 07:49:00,82.1,78.9,30.07,WSW,256,1.0,2.0,90,0.00,,,0.00,Wunderground v.1.15,2013-06-11 12:49:00,
2013-06-11 07:54:00,82.5,79.3,30.07,West,267,0.0,2.0,90,0.00,,,0.00,Wunderground v.1.15,2013-06-11 12:54:00,
2013-06-11 07:59:00,83.1,79.5,30.07,West,277,2.0,3.0,89,0.00,,,0.00,Wunderground v.1.15,2013-06-11 12:59:00,
2013-06-11 08:04:00,82.7,79.1,30.07,West,274,0.0,3.0,89,0.00,,,0.00,Wunderground v.1.15,2013-06-11 13:04:00,
2013-06-11 08:09:00,82.3,78.7,30.08,West,281,1.0,3.0,89,0.00,,,0.00,Wunderground v.1.15,2013-06-11 13:09:00,
2013-06-11 08:14:00,82.1,78.5,30.08,West,274,0.0,2.0,89,0.00,,,0.00,Wunderground v.1.15,2013-06-11 13:14:00,
2013-06-11 08:19:00,82.4,78.5,30.08,WSW,249,2.0,4.0,88,0.00,,,0.00,Wunderground v.1.15,2013-06-11 13:19:00,
2013-06-11 08:24:00,82.4,78.1,30.08,WSW,246,1.0,5.0,87,0.00,,,0.00,Wunderground v.1.15,2013-06-11 13:24:00,
2013-06-11 08:29:00,82.2,78.3,30.08,NW,312,2.0,5.0,88,0.00,,,0.00,Wunderground v.1.15,2013-06-11 13:29:00,
2013-06-11 08:34:00,82.0,78.4,30.08,WNW,300,1.0,3.0,89,0.00,,,0.00,Wunderground v.1.15,2013-06-11 13:34:00,
2013-06-11 08:39:00,82.3,78.7,30.08,WNW,284,1.0,3.0,89,0.00,,,0.00,Wunderground v.1.15,2013-06-11 13:39:00,
2013-06-11 08:44:00,83.1,79.9,30.08,NNW,338,1.0,2.0,90,0.00,,,0.00,Wunderground v.1.15,2013-06-11 13:44:00,
2013-06-11 08:49:00,83.5,78.9,30.08,West,277,2.0,3.0,86,0.00,,,0.00,Wunderground v.1.15,2013-06-11 13:49:00,
2013-06-11 08:54:00,83.4,78.8,30.08,West,267,2.0,3.0,86,0.00,,,0.00,Wunderground v.1.15,2013-06-11 13:54:00,
2013-06-11 08:59:00,83.3,78.7,30.08,West,264,0.0,3.0,86,0.00,,,0.00,Wunderground v.1.15,2013-06-11 13:59:00,
2013-06-11 09:04:00,83.0,78.7,30.08,NW,304,2.0,2.0,87,0.00,,,0.00,Wunderground v.1.15,2013-06-11 14:04:00,
2013-06-11 09:09:00,82.7,78.4,30.07,WNW,284,3.0,3.0,87,0.00,,,0.00,Wunderground v.1.15,2013-06-11 14:09:00,
2013-06-11 09:14:00,83.0,79.1,30.07,South,191,2.0,2.0,88,0.00,,,0.00,Wunderground v.1.15,2013-06-11 14:14:00,
2013-06-11 09:19:00,84.2,79.2,30.07,SW,232,2.0,2.0,85,0.00,,,0.00,Wunderground v.1.15,2013-06-11 14:19:00,
2013-06-11 09:24:00,85.3,79.5,30.07,SSE,160,3.0,3.0,83,0.00,,,0.00,Wunderground v.1.15,2013-06-11 14:24:00,
2013-06-11 09:29:00,85.4,79.6,30.07,SSW,204,3.0,4.0,83,0.00,,,0.00,Wunderground v.1.15,2013-06-11 14:29:00,
2013-06-11 09:34:00,85.2,79.4,30.07,SSW,198,2.0,3.0,83,0.00,,,0.00,Wunderground v.1.15,2013-06-11 14:34:00,
2013-06-11 09:39:00,85.0,79.3,30.07,SSW,203,2.0,3.0,83,0.00,,,0.00,Wunderground v.1.15,2013-06-11 14:39:00,
2013-06-11 09:44:00,84.7,79.3,30.07,SW,218,1.0,3.0,84,0.00,,,0.00,Wunderground v.1.15,2013-06-11 14:44:00,
2013-06-11 09:49:00,84.6,79.2,30.07,SE,134,1.0,3.0,84,0.00,,,0.00,Wunderground v.1.15,2013-06-11 14:49:00,
2013-06-11 09:54:00,84.5,79.1,30.07,South,183,3.0,4.0,84,0.00,,,0.00,Wunderground v.1.15,2013-06-11 14:54:00,
2013-06-11 09:59:00,84.7,79.7,30.07,SSE,159,3.0,4.0,85,0.00,,,0.00,Wunderground v.1.15,2013-06-11 14:59:00,
2013-06-11 10:04:00,85.2,79.8,30.07,SSE,156,2.0,4.0,84,0.00,,,0.00,Wunderground v.1.15,2013-06-11 15:04:00,
2013-06-11 10:09:00,85.3,79.5,30.07,SSW,200,2.0,5.0,83,0.00,,,0.00,Wunderground v.1.15,2013-06-11 15:09:00,
2013-06-11 10:14:00,85.2,79.4,30.07,SSW,211,4.0,5.0,83,0.00,,,0.00,Wunderground v.1.15,2013-06-11 15:14:00,
2013-06-11 10:19:00,85.3,79.9,30.07,SSW,203,4.0,5.0,84,0.00,,,0.00,Wunderground v.1.15,2013-06-11 15:19:00,
2013-06-11 10:24:00,85.4,79.6,30.07,SSW,194,3.0,5.0,83,0.00,,,0.00,Wunderground v.1.15,2013-06-11 15:24:00,
2013-06-11 10:29:00,85.4,79.6,30.07,SSW,195,3.0,4.0,83,0.00,,,0.00,Wunderground v.1.15,2013-06-11 15:29:00,
2013-06-11 10:34:00,85.5,79.4,30.07,SSW,204,4.0,6.0,82,0.00,,,0.00,Wunderground v.1.15,2013-06-11 15:34:00,
2013-06-11 10:39:00,85.5,79.4,30.07,SSE,164,4.0,4.0,82,0.00,,,0.00,Wunderground v.1.15,2013-06-11 15:39:00,
2013-06-11 10:44:00,85.3,79.2,30.07,South,172,2.0,5.0,82,0.00,,,0.00,Wunderground v.1.15,2013-06-11 15:44:00,
2013-06-11 10:49:00,85.6,79.8,30.07,SSE,155,5.0,5.0,83,0.00,,,0.00,Wunderground v.1.15,2013-06-11 15:49:00,
2013-06-11 10:55:00,85.7,79.2,30.08,SSW,208,4.0,7.0,81,0.00,,,0.00,Wunderground v.1.15,2013-06-11 15:55:00,
2013-06-11 11:00:00,85.7,79.6,30.08,SSW,195,4.0,5.0,82,0.00,,,0.00,Wunderground v.1.15,2013-06-11 16:00:00,
2013-06-11 11:04:00,85.6,79.1,30.08,SSW,207,3.0,6.0,81,0.00,,,0.00,Wunderground v.1.15,2013-06-11 16:04:00,
2013-06-11 11:09:00,85.5,79.0,30.08,South,188,4.0,4.0,81,0.00,,,0.00,Wunderground v.1.15,2013-06-11 16:09:00,
2013-06-11 11:14:00,85.7,78.8,30.08,SSW,204,5.0,6.0,80,0.00,,,0.00,Wunderground v.1.15,2013-06-11 16:14:00,
2013-06-11 11:19:00,85.9,79.4,30.08,South,182,5.0,5.0,81,0.00,,,0.00,Wunderground v.1.15,2013-06-11 16:19:00,
2013-06-11 11:25:00,86.1,79.2,30.08,South,187,6.0,6.0,80,0.00,,,0.00,Wunderground v.1.15,2013-06-11 16:25:00,
2013-06-11 11:30:00,86.1,79.2,30.08,SE,142,5.0,6.0,80,0.00,,,0.00,Wunderground v.1.15,2013-06-11 16:30:00,
2013-06-11 11:35:00,86.4,79.5,30.08,South,186,5.0,6.0,80,0.00,,,0.00,Wunderground v.1.15,2013-06-11 16:35:00,
2013-06-11 11:40:00,86.4,79.1,30.08,SSE,165,4.0,6.0,79,0.00,,,0.00,Wunderground v.1.15,2013-06-11 16:40:00,
2013-06-11 11:45:00,86.4,79.1,30.08,South,176,3.0,6.0,79,0.00,,,0.00,Wunderground v.1.15,2013-06-11 16:45:00,
2013-06-11 11:50:00,86.2,79.3,30.07,SSE,160,6.0,6.0,80,0.00,,,0.00,Wunderground v.1.15,2013-06-11 16:50:00,
2013-06-11 11:55:00,86.2,79.7,30.07,SE,141,4.0,6.0,81,0.00,,,0.00,Wunderground v.1.15,2013-06-11 16:55:00,
2013-06-11 12:00:00,86.5,78.8,30.07,SSE,160,5.0,7.0,78,0.00,,,0.00,Wunderground v.1.15,2013-06-11 17:00:00,
2013-06-11 12:05:00,86.7,79.4,30.07,SSE,148,6.0,7.0,79,0.00,,,0.00,Wunderground v.1.15,2013-06-11 17:05:00,
2013-06-11 12:10:00,86.8,79.5,30.07,SSW,205,2.0,5.0,79,0.00,,,0.00,Wunderground v.1.15,2013-06-11 17:10:00,
2013-06-11 12:15:00,87.0,79.3,30.06,South,170,4.0,7.0,78,0.00,,,0.00,Wunderground v.1.15,2013-06-11 17:15:00,
2013-06-11 12:20:00,86.9,79.2,30.06,South,186,4.0,6.0,78,0.00,,,0.00,Wunderground v.1.15,2013-06-11 17:20:00,
2013-06-11 12:25:00,87.0,80.1,30.06,South,178,5.0,7.0,80,0.00,,,0.00,Wunderground v.1.15,2013-06-11 17:25:00,
2013-06-11 12:30:00,87.1,79.4,30.06,South,169,4.0,5.0,78,0.00,,,0.00,Wunderground v.1.15,2013-06-11 17:30:00,
2013-06-11 12:35:00,87.1,79.4,30.06,SSE,149,4.0,8.0,78,0.00,,,0.00,Wunderground v.1.15,2013-06-11 17:35:00,
2013-06-11 12:40:00,87.0,79.3,30.06,South,177,4.0,5.0,78,0.00,,,0.00,Wunderground v.1.15,2013-06-11 17:40:00,
2013-06-11 12:45:00,87.3,78.8,30.06,SSW,208,4.0,6.0,76,0.00,,,0.00,Wunderground v.1.15,2013-06-11 17:45:00,
2013-06-11 12:50:00,87.5,79.0,30.06,SSW,198,4.0,7.0,76,0.00,,,0.00,Wunderground v.1.15,2013-06-11 17:50:00,
2013-06-11 12:55:00,87.5,78.6,30.06,SSW,195,4.0,7.0,75,0.00,,,0.00,Wunderground v.1.15,2013-06-11 17:55:00,
2013-06-11 13:00:00,87.3,78.8,30.06,SSW,195,6.0,6.0,76,0.00,,,0.00,Wunderground v.1.15,2013-06-11 18:00:00,
2013-06-11 13:05:00,87.5,78.6,30.06,SSW,198,3.0,7.0,75,0.00,,,0.00,Wunderground v.1.15,2013-06-11 18:05:00,
2013-06-11 13:10:00,87.2,78.7,30.06,South,184,6.0,7.0,76,0.00,,,0.00,Wunderground v.1.15,2013-06-11 18:10:00,
2013-06-11 13:15:00,86.9,77.6,30.06,South,188,8.0,9.0,74,0.00,,,0.00,Wunderground v.1.15,2013-06-11 18:15:00,
2013-06-11 13:20:00,87.1,78.6,30.06,South,180,7.0,8.0,76,0.00,,,0.00,Wunderground v.1.15,2013-06-11 18:20:00,
2013-06-11 13:25:00,87.2,78.7,30.06,SSW,203,7.0,9.0,76,0.00,,,0.00,Wunderground v.1.15,2013-06-11 18:25:00,
2013-06-11 13:30:00,87.5,78.2,30.05,SSE,160,5.0,6.0,74,0.00,,,0.00,Wunderground v.1.15,2013-06-11 18:30:00,
2013-06-11 13:35:00,87.4,78.1,30.05,South,183,8.0,9.0,74,0.00,,,0.00,Wunderground v.1.15,2013-06-11 18:35:00,
2013-06-11 13:40:00,87.4,78.5,30.05,South,184,4.0,7.0,75,0.00,,,0.00,Wunderground v.1.15,2013-06-11 18:40:00,
2013-06-11 13:45:00,87.5,77.8,30.05,South,179,7.0,10.0,73,0.00,,,0.00,Wunderground v.1.15,2013-06-11 18:45:00,
2013-06-11 13:50:00,87.5,78.2,30.05,SSW,195,6.0,9.0,74,0.00,,,0.00,Wunderground v.1.15,2013-06-11 18:50:00,
2013-06-11 13:55:00,87.6,77.9,30.05,South,183,6.0,9.0,73,0.00,,,0.00,Wunderground v.1.15,2013-06-11 18:55:00,
2013-06-11 14:00:00,87.8,78.5,30.05,SSW,193,3.0,7.0,74,0.00,,,0.00,Wunderground v.1.15,2013-06-11 19:00:00,
2013-06-11 14:05:00,87.8,77.2,30.05,SW,218,6.0,10.0,71,0.00,,,0.00,Wunderground v.1.15,2013-06-11 19:05:00,
2013-06-11 14:10:00,88.0,77.4,30.04,SSE,168,6.0,9.0,71,0.00,,,0.00,Wunderground v.1.15,2013-06-11 19:10:00,
2013-06-11 14:15:00,87.7,77.1,30.04,SSE,167,6.0,9.0,71,0.00,,,0.00,Wunderground v.1.15,2013-06-11 19:15:00,
2013-06-11 14:20:00,87.7,76.3,30.04,SSW,195,8.0,8.0,69,0.00,,,0.00,Wunderground v.1.15,2013-06-11 19:20:00,
2013-06-11 14:25:00,87.9,76.9,30.04,SSW,204,9.0,9.0,70,0.00,,,0.00,Wunderground v.1.15,2013-06-11 19:25:00,
2013-06-11 14:30:00,87.8,76.8,30.04,South,186,6.0,9.0,70,0.00,,,0.00,Wunderground v.1.15,2013-06-11 19:30:00,
2013-06-11 14:35:00,88.1,77.5,30.03,SSW,192,6.0,9.0,71,0.00,,,0.00,Wunderground v.1.15,2013-06-11 19:35:00,
2013-06-11 14:41:00,88.4,76.9,30.03,SSW,195,7.0,8.0,69,0.00,,,0.00,Wunderground v.1.15,2013-06-11 19:41:00,
2013-06-11 14:46:00,88.1,77.5,30.04,South,188,9.0,11.0,71,0.00,,,0.00,Wunderground v.1.15,2013-06-11 19:46:00,
2013-06-11 14:51:00,88.3,77.3,30.03,South,191,4.0,7.0,70,0.00,,,0.00,Wunderground v.1.15,2013-06-11 19:51:00,
2013-06-11 14:56:00,88.5,76.1,30.03,SSW,202,7.0,9.0,67,0.00,,,0.00,Wunderground v.1.15,2013-06-11 19:56:00,
2013-06-11 15:01:00,88.7,76.8,30.03,SW,221,4.0,9.0,68,0.00,,,0.00,Wunderground v.1.15,2013-06-11 20:01:00,
2013-06-11 15:06:00,88.6,76.2,30.03,SSW,202,4.0,9.0,67,0.00,,,0.00,Wunderground v.1.15,2013-06-11 20:06:00,
2013-06-11 15:11:00,88.4,77.4,30.03,SSW,195,7.0,9.0,70,0.00,,,0.00,Wunderground v.1.15,2013-06-11 20:11:00,
2013-06-11 15:16:00,88.1,78.3,30.03,SSW,207,3.0,11.0,73,0.00,,,0.00,Wunderground v.1.15,2013-06-11 20:16:00,
2013-06-11 15:21:00,88.3,76.8,30.03,SSW,205,3.0,6.0,69,0.00,,,0.00,Wunderground v.1.15,2013-06-11 20:21:00,
2013-06-11 15:26:00,88.8,77.7,30.03,South,184,3.0,9.0,70,0.00,,,0.00,Wunderground v.1.15,2013-06-11 20:26:00,
2013-06-11 15:31:00,88.9,77.4,30.03,South,180,4.0,8.0,69,0.00,,,0.00,Wunderground v.1.15,2013-06-11 20:31:00,
2013-06-11 15:36:00,89.0,77.9,30.03,South,190,2.0,8.0,70,0.00,,,0.00,Wunderground v.1.15,2013-06-11 20:36:00,
2013-06-11 15:41:00,89.4,78.8,30.02,SSW,197,4.0,6.0,71,0.00,,,0.00,Wunderground v.1.15,2013-06-11 20:41:00,
2013-06-11 15:46:00,89.2,78.6,30.02,South,179,5.0,8.0,71,0.00,,,0.00,Wunderground v.1.15,2013-06-11 20:46:00,
2013-06-11 15:51:00,88.9,77.8,30.02,WSW,257,2.0,9.0,70,0.00,,,0.00,Wunderground v.1.15,2013-06-11 20:51:00,
2013-06-11 15:55:00,88.7,77.7,30.02,SW,228,4.0,9.0,70,0.00,,,0.00,Wunderground v.1.15,2013-06-11 20:55:00,
2013-06-11 16:01:00,88.5,76.6,30.02,SSW,195,7.0,9.0,68,0.00,,,0.00,Wunderground v.1.15,2013-06-11 21:01:00,
2013-06-11 16:06:00,88.4,76.9,30.02,SSW,208,2.0,9.0,69,0.00,,,0.00,Wunderground v.1.15,2013-06-11 21:06:00,
2013-06-11 16:11:00,88.6,78.0,30.02,SW,215,4.0,8.0,71,0.00,,,0.00,Wunderground v.1.15,2013-06-11 21:11:00,
2013-06-11 16:16:00,88.5,77.9,30.01,SSW,205,6.0,9.0,71,0.00,,,0.00,Wunderground v.1.15,2013-06-11 21:16:00,
2013-06-11 16:21:00,88.6,78.0,30.01,South,181,3.0,7.0,71,0.00,,,0.00,Wunderground v.1.15,2013-06-11 21:21:00,
2013-06-11 16:26:00,88.2,77.2,30.01,SSW,202,5.0,10.0,70,0.00,,,0.00,Wunderground v.1.15,2013-06-11 21:26:00,
2013-06-11 16:31:00,88.2,77.2,30.01,SSW,210,4.0,6.0,70,0.00,,,0.00,Wunderground v.1.15,2013-06-11 21:31:00,
2013-06-11 16:36:00,88.2,77.6,30.01,SW,230,5.0,8.0,71,0.00,,,0.00,Wunderground v.1.15,2013-06-11 21:36:00,
2013-06-11 16:41:00,88.6,76.7,30.01,SW,226,5.0,8.0,68,0.00,,,0.00,Wunderground v.1.15,2013-06-11 21:41:00,
2013-06-11 16:46:00,88.6,76.2,30.01,South,179,4.0,8.0,67,0.00,,,0.00,Wunderground v.1.15,2013-06-11 21:46:00,
2013-06-11 16:51:00,88.9,76.1,30.00,SSW,193,6.0,7.0,66,0.00,,,0.00,Wunderground v.1.15,2013-06-11 21:51:00,
2013-06-11 16:56:00,88.7,75.9,30.00,SSW,204,3.0,7.0,66,0.00,,,0.00,Wunderground v.1.15,2013-06-11 21:56:00,
2013-06-11 17:01:00,88.6,76.2,30.00,SW,215,8.0,8.0,67,0.00,,,0.00,Wunderground v.1.15,2013-06-11 22:01:00,
2013-06-11 17:06:00,88.4,76.0,30.00,WSW,245,5.0,9.0,67,0.00,,,0.00,Wunderground v.1.15,2013-06-11 22:06:00,
2013-06-11 17:11:00,88.5,76.6,30.00,SW,235,7.0,7.0,68,0.00,,,0.00,Wunderground v.1.15,2013-06-11 22:11:00,
2013-06-11 17:16:00,88.5,77.5,30.00,SSW,194,3.0,8.0,70,0.00,,,0.00,Wunderground v.1.15,2013-06-11 22:16:00,
2013-06-11 17:21:00,88.3,76.8,30.00,South,188,5.0,10.0,69,0.00,,,0.00,Wunderground v.1.15,2013-06-11 22:21:00,
2013-06-11 17:26:00,88.3,77.3,30.00,South,177,5.0,10.0,70,0.00,,,0.00,Wunderground v.1.15,2013-06-11 22:26:00,
2013-06-11 17:31:00,88.5,77.5,30.00,SSE,167,7.0,7.0,70,0.00,,,0.00,Wunderground v.1.15,2013-06-11 22:31:00,
2013-06-11 17:36:00,88.1,76.6,30.00,SW,221,4.0,9.0,69,0.00,,,0.00,Wunderground v.1.15,2013-06-11 22:36:00,
2013-06-11 17:41:00,88.0,76.5,29.99,South,188,7.0,10.0,69,0.00,,,0.00,Wunderground v.1.15,2013-06-11 22:41:00,
2013-06-11 17:46:00,87.9,77.3,29.99,SW,236,5.0,10.0,71,0.00,,,0.00,Wunderground v.1.15,2013-06-11 22:46:00,
2013-06-11 17:51:00,88.0,77.0,29.99,South,187,7.0,7.0,70,0.00,,,0.00,Wunderground v.1.15,2013-06-11 22:51:00,
2013-06-11 17:56:00,87.9,77.3,29.99,South,174,5.0,8.0,71,0.00,,,0.00,Wunderground v.1.15,2013-06-11 22:56:00,
2013-06-11 18:01:00,87.7,78.4,30.00,SSW,200,6.0,9.0,74,0.00,,,0.00,Wunderground v.1.15,2013-06-11 23:01:00,
2013-06-11 18:06:00,87.6,77.9,30.00,SSW,198,8.0,9.0,73,0.00,,,0.00,Wunderground v.1.15,2013-06-11 23:06:00,
2013-06-11 18:11:00,87.4,77.7,30.00,SSW,197,5.0,7.0,73,0.00,,,0.00,Wunderground v.1.15,2013-06-11 23:11:00,
2013-06-11 18:16:00,87.4,77.7,30.00,South,187,2.0,8.0,73,0.00,,,0.00,Wunderground v.1.15,2013-06-11 23:16:00,
2013-06-11 18:21:00,87.3,77.2,30.00,SSW,211,5.0,8.0,72,0.00,,,0.00,Wunderground v.1.15,2013-06-11 23:21:00,
2013-06-11 18:26:00,87.3,77.6,30.00,WSW,249,3.0,9.0,73,0.00,,,0.00,Wunderground v.1.15,2013-06-11 23:26:00,
2013-06-11 18:31:00,87.4,77.7,30.00,SSW,204,6.0,8.0,73,0.00,,,0.00,Wunderground v.1.15,2013-06-11 23:31:00,
2013-06-11 18:36:00,87.2,77.5,30.00,South,184,6.0,10.0,73,0.00,,,0.00,Wunderground v.1.15,2013-06-11 23:36:00,
2013-06-11 18:41:00,87.1,77.4,30.00,SSW,202,6.0,7.0,73,0.00,,,0.00,Wunderground v.1.15,2013-06-11 23:41:00,
2013-06-11 18:46:00,86.8,77.1,30.00,SSW,203,6.0,11.0,73,0.00,,,0.00,Wunderground v.1.15,2013-06-11 23:46:00,
2013-06-11 18:51:00,86.6,77.3,30.00,South,177,5.0,8.0,74,0.00,,,0.00,Wunderground v.1.15,2013-06-11 23:51:00,
2013-06-11 18:56:00,86.6,77.3,30.00,SW,236,6.0,8.0,74,0.00,,,0.00,Wunderground v.1.15,2013-06-11 23:56:00,
2013-06-11 19:01:00,86.5,77.6,30.00,South,180,7.0,9.0,75,0.00,,,0.00,Wunderground v.1.15,2013-06-12 00:01:00,
2013-06-11 19:07:00,86.3,77.4,30.00,SW,230,6.0,9.0,75,0.00,,,0.00,Wunderground v.1.15,2013-06-12 00:07:00,
2013-06-11 19:12:00,86.0,77.5,30.00,South,184,6.0,9.0,76,0.00,,,0.00,Wunderground v.1.15,2013-06-12 00:12:00,
2013-06-11 19:17:00,85.7,77.3,30.00,South,184,9.0,11.0,76,0.00,,,0.00,Wunderground v.1.15,2013-06-12 00:17:00,
2013-06-11 19:22:00,85.6,77.6,30.00,South,190,6.0,10.0,77,0.00,,,0.00,Wunderground v.1.15,2013-06-12 00:22:00,
2013-06-11 19:27:00,85.5,77.9,30.00,South,188,7.0,10.0,78,0.00,,,0.00,Wunderground v.1.15,2013-06-12 00:27:00,
2013-06-11 19:32:00,85.2,78.3,30.00,South,173,7.0,11.0,80,0.00,,,0.00,Wunderground v.1.15,2013-06-12 00:32:00,
2013-06-11 19:37:00,85.0,77.8,30.00,SSW,201,7.0,11.0,79,0.00,,,0.00,Wunderground v.1.15,2013-06-12 00:37:00,
2013-06-11 19:42:00,84.9,78.0,30.00,SSW,210,6.0,8.0,80,0.00,,,0.00,Wunderground v.1.15,2013-06-12 00:42:00,
2013-06-11 19:47:00,84.7,77.8,30.01,SSE,167,6.0,10.0,80,0.00,,,0.00,Wunderground v.1.15,2013-06-12 00:47:00,
2013-06-11 19:52:00,84.6,77.4,30.00,SSW,207,6.0,10.0,79,0.00,,,0.00,Wunderground v.1.15,2013-06-12 00:52:00,
2013-06-11 19:57:00,84.5,76.9,30.01,South,187,6.0,10.0,78,0.00,,,0.00,Wunderground v.1.15,2013-06-12 00:57:00,
2013-06-11 20:02:00,84.4,77.2,30.01,SW,220,8.0,8.0,79,0.00,,,0.00,Wunderground v.1.15,2013-06-12 01:02:00,
2013-06-11 20:07:00,84.4,77.2,30.01,SSW,195,6.0,10.0,79,0.00,,,0.00,Wunderground v.1.15,2013-06-12 01:07:00,
2013-06-11 20:12:00,84.3,76.7,30.01,South,182,5.0,9.0,78,0.00,,,0.00,Wunderground v.1.15,2013-06-12 01:12:00,
2013-06-11 20:17:00,84.3,76.7,30.01,SSW,210,6.0,9.0,78,0.00,,,0.00,Wunderground v.1.15,2013-06-12 01:17:00,
2013-06-11 20:22:00,84.2,76.6,30.01,South,182,9.0,10.0,78,0.00,,,0.00,Wunderground v.1.15,2013-06-12 01:22:00,
2013-06-11 20:27:00,84.2,77.0,30.01,WSW,238,3.0,10.0,79,0.00,,,0.00,Wunderground v.1.15,2013-06-12 01:27:00,
2013-06-11 20:32:00,84.0,76.8,30.00,SW,219,5.0,7.0,79,0.00,,,0.00,Wunderground v.1.15,2013-06-12 01:32:00,
2013-06-11 20:37:00,83.9,76.3,30.01,SW,224,4.0,8.0,78,0.00,,,0.00,Wunderground v.1.15,2013-06-12 01:37:00,
2013-06-11 20:42:00,83.9,76.7,30.01,SSW,202,4.0,6.0,79,0.00,,,0.00,Wunderground v.1.15,2013-06-12 01:42:00,
2013-06-11 20:47:00,83.9,77.1,30.01,SSW,205,2.0,8.0,80,0.00,,,0.00,Wunderground v.1.15,2013-06-12 01:47:00,
2013-06-11 20:52:00,83.8,77.0,30.01,SSW,192,5.0,10.0,80,0.00,,,0.00,Wunderground v.1.15,2013-06-12 01:52:00,
2013-06-11 20:57:00,83.7,76.9,30.01,SSW,205,3.0,10.0,80,0.00,,,0.00,Wunderground v.1.15,2013-06-12 01:57:00,
2013-06-11 21:02:00,83.7,76.9,30.01,SSW,205,1.0,8.0,80,0.00,,,0.00,Wunderground v.1.15,2013-06-12 02:02:00,
2013-06-11 21:07:00,83.6,77.1,30.01,SSE,152,2.0,9.0,81,0.00,,,0.00,Wunderground v.1.15,2013-06-12 02:07:00,
2013-06-11 21:12:00,83.5,77.1,30.01,WSW,243,3.0,6.0,81,0.00,,,0.00,Wunderground v.1.15,2013-06-12 02:12:00,
2013-06-11 21:17:00,83.4,77.0,30.02,WSW,256,2.0,6.0,81,0.00,,,0.00,Wunderground v.1.15,2013-06-12 02:17:00,
2013-06-11 21:22:00,83.4,77.0,30.02,WSW,239,4.0,7.0,81,0.00,,,0.00,Wunderground v.1.15,2013-06-12 02:22:00,
2013-06-11 21:27:00,83.4,76.6,30.02,SSW,197,1.0,7.0,80,0.00,,,0.00,Wunderground v.1.15,2013-06-12 02:27:00,
2013-06-11 21:32:00,83.4,76.6,30.03,SSW,200,1.0,6.0,80,0.00,,,0.00,Wunderground v.1.15,2013-06-12 02:32:00,
2013-06-11 21:37:00,83.4,77.0,30.03,SSW,205,2.0,7.0,81,0.00,,,0.00,Wunderground v.1.15,2013-06-12 02:37:00,
2013-06-11 21:42:00,83.3,77.2,30.03,SW,219,5.0,6.0,82,0.00,,,0.00,Wunderground v.1.15,2013-06-12 02:42:00,
2013-06-11 21:47:00,83.3,78.0,30.03,SW,235,8.0,8.0,84,0.00,,,0.00,Wunderground v.1.15,2013-06-12 02:47:00,
2013-06-11 21:52:00,83.2,78.6,30.03,South,177,5.0,5.0,86,0.00,,,0.00,Wunderground v.1.15,2013-06-12 02:52:00,
2013-06-11 21:57:00,83.1,78.5,30.03,West,281,4.0,9.0,86,0.00,,,0.00,Wunderground v.1.15,2013-06-12 02:57:00,
2013-06-11 22:02:00,83.0,78.7,30.03,SSW,198,4.0,10.0,87,0.00,,,0.00,Wunderground v.1.15,2013-06-12 03:02:00,
2013-06-11 22:07:00,82.8,78.5,30.04,SSW,207,5.0,10.0,87,0.00,,,0.00,Wunderground v.1.15,2013-06-12 03:07:00,
2013-06-11 22:12:00,82.8,78.9,30.04,NW,312,3.0,6.0,88,0.00,,,0.00,Wunderground v.1.15,2013-06-12 03:12:00,
2013-06-11 22:17:00,82.7,78.4,30.04,WSW,239,3.0,8.0,87,0.00,,,0.00,Wunderground v.1.15,2013-06-12 03:17:00,
2013-06-11 22:22:00,82.6,78.7,30.04,South,188,1.0,10.0,88,0.00,,,0.00,Wunderground v.1.15,2013-06-12 03:22:00,
2013-06-11 22:28:00,82.6,78.7,30.04,SSW,205,1.0,10.0,88,0.00,,,0.00,Wunderground v.1.15,2013-06-12 03:28:00,
2013-06-11 22:33:00,82.5,78.6,30.04,SSW,204,1.0,7.0,88,0.00,,,0.00,Wunderground v.1.15,2013-06-12 03:33:00,
2013-06-11 22:38:00,82.4,78.5,30.05,South,186,2.0,8.0,88,0.00,,,0.00,Wunderground v.1.15,2013-06-12 03:38:00,
2013-06-11 22:43:00,82.4,78.5,30.05,WSW,239,0.0,4.0,88,0.00,,,0.00,Wunderground v.1.15,2013-06-12 03:43:00,
2013-06-11 22:48:00,82.3,78.4,30.05,SW,228,0.0,5.0,88,0.00,,,0.00,Wunderground v.1.15,2013-06-12 03:48:00,
2013-06-11 22:53:00,82.3,78.4,30.05,West,264,1.0,6.0,88,0.00,,,0.00,Wunderground v.1.15,2013-06-12 03:53:00,
2013-06-11 22:58:00,82.3,78.4,30.05,SSW,212,0.0,7.0,88,0.00,,,0.00,Wunderground v.1.15,2013-06-12 03:58:00,
2013-06-11 23:01:00,82.3,78.4,30.05,SSW,208,3.0,4.0,88,0.00,,,0.00,Wunderground v.1.15,2013-06-12 04:01:00,
2013-06-11 23:07:00,82.2,78.3,30.05,SW,219,2.0,7.0,88,0.00,,,0.00,Wunderground v.1.15,2013-06-12 04:07:00,
2013-06-11 23:12:00,82.2,78.6,30.05,SW,214,0.0,4.0,89,0.00,,,0.00,Wunderground v.1.15,2013-06-12 04:12:00,
2013-06-11 23:17:00,82.1,78.5,30.05,West,274,2.0,4.0,89,0.00,,,0.00,Wunderground v.1.15,2013-06-12 04:17:00,
2013-06-11 23:22:00,82.0,78.4,30.05,SW,221,1.0,2.0,89,0.00,,,0.00,Wunderground v.1.15,2013-06-12 04:22:00,
2013-06-11 23:27:00,81.9,78.3,30.05,South,182,1.0,6.0,89,0.00,,,0.00,Wunderground v.1.15,2013-06-12 04:27:00,
2013-06-11 23:32:00,81.8,78.2,30.05,West,262,1.0,4.0,89,0.00,,,0.00,Wunderground v.1.15,2013-06-12 04:32:00,
2013-06-11 23:37:00,81.8,78.6,30.05,WSW,243,0.0,6.0,90,0.00,,,0.00,Wunderground v.1.15,2013-06-12 04:37:00,
2013-06-11 23:42:00,81.7,78.5,30.05,SSW,195,2.0,5.0,90,0.00,,,0.00,Wunderground v.1.15,2013-06-12 04:42:00,
2013-06-11 23:47:00,81.6,78.4,30.05,WSW,243,0.0,5.0,90,0.00,,,0.00,Wunderground v.1.15,2013-06-12 04:47:00,
2013-06-11 23:52:00,81.6,78.4,30.05,SW,230,1.0,5.0,90,0.00,,,0.00,Wunderground v.1.15,2013-06-12 04:52:00,
2013-06-11 23:57:00,81.5,78.3,30.05,WSW,257,3.0,5.0,90,0.00,,,0.00,Wunderground v.1.15,2013-06-12 04:57:00,